Weather observations for the past three days for
Sikeston Memorial Municipal Airport
Metric (Imperial)
Date Time (cdt) Wind (kph) Vis. (km) Weather Sky Cond. Temperature (ºC) Relative Humidity Wind Chill (°C) Heat Index (°C) Pressure Precipitation (cm)
Air Dwpt 6 hour altimeter (cm) sea level (mb) 1 hr 3 hr 6 hr
Max. Min.
02 13:55 S 11 16.09 Fair CLR 36.9 21 40% 41 76.25 0.0
02 13:35 SW 13 16.09 Fair CLR 36.8 21.2 40% 41 76.25 0.0
02 13:15 S 9 16.09 A Few Clouds FEW060 36.7 21.3 41% 41 76.25 0.0
02 12:55 SW 13 16.09 Fair CLR 35.6 21.1 36.6 24.9 43% 39 76.28 0.0
02 12:35 SW 15 16.09 Fair CLR 36.4 21.2 41% 40 76.3 0.0
02 12:15 SW 15 16.09 Fair CLR 36.3 21.5 42% 41 76.3 0.0
02 11:55 SW 9 16.09 Fair CLR 35.8 22 45% 40 76.33 0.0
02 11:35 SW 6 16.09 Fair CLR 35.7 22.3 46% 41 76.33 0.0
02 11:15 SW 11 16.09 Fair CLR 34.7 22.5 49% 40 76.35 0.0
02 10:55 SW 9 16.09 Fair CLR 34.3 23 52% 40 76.35 0.0
02 10:35 SW 7 16.09 Fair CLR 33.6 22.8 53% 39 76.35 0.0
02 10:15 SW 7 16.09 Fair CLR 32.8 23.4 58% 38 76.35 0.0
02 09:55 SW 7 16.09 Fair CLR 31.9 23.4 61% 37 76.35 0.0
02 09:35 SW 7 16.09 Fair CLR 31.6 23.5 62% 37 76.35 0.0
02 09:15 S 6 16.09 Fair CLR 30.8 23.5 65% 36 76.35 0.0
02 08:55 SW 6 16.09 Fair CLR 29.9 23.7 69% 35 76.38 0.0
02 08:35 S 6 16.09 Fair CLR 29.5 24.5 75% 35 76.35 0.0
02 08:15 Calm 16.09 Fair CLR 28.5 24.5 79% 33 76.35 0.0
02 07:55 Calm 14.48 Fair CLR 27 25 89% 31 76.35 0.0
02 07:35 Calm 14.48 Fair CLR 26.3 24.9 92% 29 76.35 0.0
02 07:15 Calm 14.48 NULL NULL 25.7 24.1 91% 27 76.33 0.0
02 06:55 Calm 14.48 NULL NULL 24.3 23.8 26.9 22.4 97% 24 76.3 0.0
02 06:35 Calm 16.09 Fair CLR 23.5 23.5 100% 76.28 0.0
02 06:15 Calm 16.09 Fair CLR 22.6 22.6 100% 76.28 0.0
02 05:55 SE 6 16.09 Fair CLR 22.6 22.6 100% 76.25 0.0
02 05:35 Calm 14.48 Fair CLR 22.7 22.7 100% 76.25 0.0
02 05:15 Calm 14.48 Fair CLR 23 23 100% 76.25 0.0
02 04:55 Calm 16.09 Fair CLR 23.3 23.3 100% 76.25 0.0
02 04:35 Calm 16.09 Fair CLR 23.3 23.3 100% 76.25 0.0
02 04:15 Calm 16.09 Fair CLR 23.1 23.1 100% 76.23 0.0
02 03:55 Calm 14.48 Fair CLR 23.5 23.5 100% 76.23 0.0
02 03:35 Calm 16.09 Fair CLR 23.7 23.7 100% 76.23 0.0
02 03:15 Calm 16.09 Fair CLR 23.7 23.7 100% 76.25 0.0
02 02:55 Calm 16.09 Fair CLR 26 24.4 91% 28 76.23 0.0
02 02:35 Calm 16.09 Fair CLR 26.1 24.4 90% 28 76.23 0.0
02 02:15 S 6 14.48 Fair CLR 26 24.4 91% 28 76.25 0.0
02 01:55 Calm 16.09 Fair CLR 26.3 24.4 89% 29 76.25 0.0
02 01:35 Calm 16.09 Fair CLR 26.1 24.5 91% 28 76.25 0.0
02 01:15 S 6 16.09 Fair CLR 26.8 24.6 88% 30 76.25 0.0
02 00:55 Calm 16.09 Fair CLR 25.3 24.4 32.8 25.1 95% 26 76.25 0.0
02 00:35 Calm 16.09 Fair CLR 25.3 24.5 95% 26 76.23 0.0
02 00:15 Calm 14.48 Fair CLR 25.5 24.6 95% 27 76.23 0.0
01 23:55 Calm 16.09 Fair CLR 26 24.6 92% 28 76.23 0.0
01 23:35 Calm 16.09 Fair CLR 26.8 24.5 87% 30 76.23 0.0
01 23:15 Calm 16.09 Fair CLR 26.7 24.6 88% 30 76.2 0.0
01 22:55 SE 6 14.48 Fair CLR 27.2 24.6 86% 31 76.2 0.0
01 22:35 SE 6 16.09 Fair CLR 27.1 24.5 86% 31 76.23 0.0
01 22:15 SE 7 16.09 NULL NULL 27.3 24.4 84% 31 76.23 0.0
01 21:55 SE 6 14.48 NULL NULL 26.8 24.4 87% 30 76.23 0.0
01 21:35 SE 7 16.09 Fair CLR 27.1 24.4 85% 31 76.2 0.0
01 21:15 SE 6 14.48 Fair CLR 27.5 23.4 78% 31 76.2 0.0
01 20:55 SE 6 16.09 Fair CLR 28 23.1 75% 31 76.2 0.0
01 20:35 SE 6 16.09 Fair CLR 28.1 23.1 74% 31 76.2 0.0
01 20:15 SE 6 16.09 Fair CLR 30.2 22.1 62% 34 76.17 0.0
01 19:55 S 6 12.87 Fair CLR 30.9 22 59% 34 76.17 0.0
01 19:35 SE 7 12.87 Fair CLR 31.1 22.4 60% 35 76.17 0.0
01 19:15 S 6 14.48 Fair CLR 32.2 22.2 56% 36 76.17 0.0
01 18:55 SE 7 12.87 Fair CLR 33.6 22.1 37.2 33.6 51% 38 76.17 0.0
01 18:35 S 7 14.48 Fair CLR 34.1 21.8 49% 38 76.17 0.0
01 18:15 S 9 14.48 Fair CLR 34.6 21.8 47% 39 76.2 0.0
01 17:55 SE 9 16.09 Fair CLR 35.3 21.9 46% 40 76.2 0.0
01 17:35 SE 9 16.09 Fair CLR 35.4 22.1 46% 40 76.2 0.0
01 17:15 S 11 16.09 Fair CLR 35.3 22 46% 40 76.2 0.0
01 16:55 S 13 16.09 Fair CLR 35.7 22.3 46% 41 76.17 0.0
01 16:35 Vrbl 6 16.09 Fair CLR 35.7 21.5 44% 40 76.17 0.0
01 16:15 Vrbl 6 16.09 A Few Clouds FEW070 36.5 21.6 42% 41 76.2 0.0
01 15:55 S 9 16.09 A Few Clouds FEW065 36.7 21.4 41% 41 76.2 0.0
01 15:35 Vrbl 7 14.48 Partly Cloudy SCT065 37.1 22 42% 42 76.23 0.0
01 15:15 Vrbl 6 16.09 Fair CLR 36.7 20.9 40% 40 76.23 0.0
01 14:55 SW 13 16.09 A Few Clouds FEW060 36.9 21.9 42% 42 76.25 0.0
01 14:35 W 9 16.09 A Few Clouds FEW060 36.7 22.1 43% 42 76.25 0.0
01 14:15 W 13 16.09 A Few Clouds FEW060 36.2 22.2 44% 41 76.28 0.0
01 13:55 S 11 16.09 Fair CLR 36.1 21.4 42% 40 76.3 0.0
01 13:35 W 13 16.09 NULL NULL 36 21.4 43% 40 76.3 0.0
01 13:15 W 9 16.09 NULL NULL 35.6 22.6 47% 41 76.33 0.0
01 12:55 W 7 16.09 Fair CLR 35.5 21.9 35.7 22.8 45% 40 76.35 0.0
01 12:35 SW 13 16.09 Fair CLR 35.6 22.7 47% 41 76.35 0.0
01 12:15 SW 15 16.09 Fair CLR 35 22.8 49% 40 76.38 0.0
01 11:55 SW 13 16.09 Fair CLR 34.9 23.2 51% 41 76.38 0.0
01 11:35 S 9 16.09 Fair CLR 34.6 23.5 52% 41 76.38 0.0
01 11:15 SW 13 16.09 Fair CLR 34.4 23.7 54% 41 76.4 0.0
01 10:55 SW 9 14.48 Fair CLR 33.7 24.1 57% 40 76.4 0.0
01 10:35 W 11 16.09 Fair CLR 33.3 23.7 57% 39 76.4 0.0
01 10:15 SW 7 14.48 Fair CLR 32.4 24 61% 38 76.4 0.0
01 09:55 SW 7 16.09 Fair CLR 31.2 23.8 65% 37 76.4 0.0
01 09:15 SW 7 16.09 Fair CLR 30.1 24.4 72% 36 76.4 0.0
01 08:55 SW 7 16.09 Fair CLR 29.3 24.7 76% 35 76.4 0.0
01 08:35 S 6 14.48 Fair CLR 28.1 24.6 81% 33 76.4 0.0
01 08:15 S 6 16.09 Fair CLR 27.1 24.4 85% 31 76.4 0.0
01 07:55 S 6 14.48 Fair CLR 26.3 24.3 89% 29 76.4 0.0
01 07:35 S 6 12.87 Fair CLR 25.4 24.4 94% 27 76.4 0.0
01 07:15 Calm 12.87 Fair CLR 23.6 23.6 100% 76.38 0.0
01 06:55 Calm 12.87 Fair CLR 22.7 22.7 25.9 22.7 100% 76.35 0.0
01 06:35 Calm 12.87 Fair CLR 23.2 23.2 100% 76.35 0.0
01 06:15 Calm 16.09 Fair CLR 24.8 23.5 93% 25 76.33 0.0
01 05:55 Calm 16.09 Fair CLR 25 23.6 92% 26 76.33 0.0
01 05:35 SW 6 14.48 Fair CLR 25.2 23.7 91% 26 76.3 0.0
01 05:15 S 6 16.09 Fair CLR 25.4 23.6 90% 27 76.3 0.0
01 04:55 Calm 14.48 Fair CLR 24 23.4 96% 23 76.3 0.0
01 04:35 Calm 16.09 NULL NULL 25.4 23.7 90% 27 76.3 0.0
01 04:15 S 6 16.09 NULL NULL 25.7 23.8 89% 27 76.28 0.0
01 03:55 S 6 16.09 Fair CLR 25.6 23.8 90% 27 76.25 0.0
01 03:35 S 6 16.09 Fair CLR 25.7 23.8 89% 27 76.25 0.0
01 03:15 S 6 16.09 Fair CLR 25.7 23.9 90% 27 76.25 0.0
01 02:55 S 7 14.48 Fair CLR 25.5 23.9 91% 27 76.25 0.0
01 02:35 Calm 16.09 Fair CLR 25.2 23.8 92% 26 76.25 0.0
01 02:15 Calm 14.48 Fair CLR 25.1 23.7 92% 26 76.23 0.0
01 01:55 S 6 16.09 Fair CLR 25.8 23.9 89% 28 76.23 0.0
01 01:35 S 6 16.09 Fair CLR 25.8 23.8 89% 28 76.25 0.0
01 01:15 S 6 16.09 Fair CLR 25.3 23.7 91% 26 76.25 0.0
01 00:55 Calm 16.09 Fair CLR 24.1 23.7 31.9 24.1 98% 23 76.25 0.0
01 00:35 Calm 16.09 Fair CLR 24.5 23.8 96% 24 76.25 0.0
01 00:15 Calm 16.09 Fair CLR 25.5 24.1 92% 27 76.25 0.0
31 23:35 S 6 16.09 Fair CLR 25.6 24 91% 27 76.28 0.0
31 23:15 S 6 14.48 Fair CLR 25.7 24.1 91% 27 76.25 0.0
31 22:55 Calm 16.09 Fair CLR 25.2 24.2 94% 26 76.25 0.0
31 22:35 Calm 14.48 Fair CLR 25.9 24.3 91% 28 76.28 0.0
31 22:15 SE 6 16.09 Fair CLR 26.1 24.5 91% 28 76.28 0.0
31 21:55 SE 6 16.09 Fair CLR 25.6 24.7 95% 27 76.28 0.0
31 21:35 SE 7 16.09 Fair CLR 25.6 24.9 96% 27 76.25 0.0
31 21:15 Calm 16.09 Fair CLR 26.1 24.9 93% 28 76.25 0.0
31 20:55 Calm 16.09 Fair CLR 27 25.3 90% 31 76.23 0.0
31 20:35 Calm 16.09 Fair CLR 26.9 25.4 92% 31 76.23 0.0
31 20:15 Calm 16.09 Fair CLR 27.7 24.6 83% 32 76.2 0.0
31 19:55 Calm 16.09 NULL NULL 28.3 24.2 78% 33 76.2 0.0
31 19:35 Calm 14.48 NULL NULL 29.4 23.9 72% 34 76.17 0.0
31 19:15 SE 6 16.09 NULL NULL 31.2 22.7 61% 35 76.17 0.0
31 18:55 SE 7 14.48 Fair CLR 32.5 22.2 35.7 32.5 55% 37 76.2 0.0
31 18:35 S 11 16.09 Fair CLR 33 21.6 51% 37 76.2 0.0
31 18:15 S 7 16.09 Fair CLR 33.5 21.7 50% 37 76.2 0.0
31 17:55 S 13 14.48 Fair CLR 33.9 21.6 49% 38 76.2 0.0
31 17:35 S 13 16.09 Fair CLR 34 21.6 48% 38 76.23 0.0
31 17:15 SE 17 16.09 Fair CLR 34.3 22.2 49% 39 76.23 0.0
31 16:55 SE 11 16.09 A Few Clouds FEW060 34.9 22.4 48% 40 76.25 0.0
31 16:35 Vrbl 7 16.09 Partly Cloudy SCT060 35 22.4 48% 40 76.25 0.0
31 16:15 Vrbl 9 16.09 Fair CLR 35.3 21.3 44% 39 76.25 0.0
31 15:55 S 11 16.09 Fair CLR 35.5 21.3 44% 39 76.28 0.0
31 15:35 SW 11 16.09 A Few Clouds FEW060 35.1 21.6 45% 39 76.25 0.0
31 15:15 S 9 16.09 A Few Clouds FEW055 35.2 22.2 47% 40 76.28 0.0
31 14:55 Vrbl 11 16.09 Partly Cloudy SCT050 35.6 22.8 48% 41 76.3 0.0
31 14:35 Vrbl 7 16.09 Partly Cloudy SCT050 34.9 22.5 49% 40 76.33 0.0
31 14:15 Vrbl 11 14.48 Mostly Cloudy BKN050 33.8 22.6 52% 39 76.33 0.0
31 13:55 S 9 16.09 A Few Clouds FEW049 34.4 22.4 50% 39 76.35 0.0
31 13:35 Vrbl 11 16.09 A Few Clouds FEW049 35 22.4 48% 40 76.35 0.0
31 13:15 SW 13 16.09 A Few Clouds FEW047 34.7 22.7 50% 40 76.38 0.0
31 12:55 Vrbl 9 16.09 Fair CLR 34.3 22.6 34.3 22.7 50% 39 76.38 0.0
31 12:35 SW 11 16.09 Fair CLR 34 22.8 52% 39 76.4 0.0
31 12:15 SW 15 16.09 Fair CLR 33.8 23.3 54% 39 76.4 0.0
31 11:55 Vrbl 7 16.09 Fair CLR 33.3 23.6 57% 39 76.43 0.0
31 11:35 SW 15 16.09 Fair CLR 33.1 23.4 57% 39 76.43 0.0
31 11:15 SW 15 16.09 Fair CLR 32.6 23.5 59% 38 76.45 0.0
31 10:55 SW 15 16.09 NULL NULL 32 23.4 60% 37 76.43 0.0
31 10:35 SW 17 16.09 NULL NULL 31.8 23.2 60% 37 76.43 0.0
31 10:15 SW 9 16.09 Fair CLR 31.4 23.6 63% 37 76.43 0.0
31 09:55 SW 17 16.09 Fair CLR 30.7 23.5 65% 36 76.43 0.0
31 09:35 SW 13 16.09 Fair CLR 30 23.5 68% 35 76.4 0.0
31 09:15 SW 17 16.09 Fair CLR 29.4 24.1 73% 34 76.4 0.0
31 08:55 S 9 16.09 Fair CLR 28.5 24.3 78% 33 76.4 0.0
31 08:35 Vrbl 11 16.09 Fair CLR 28 24.1 79% 32 76.4 0.0
31 08:15 S 9 16.09 Fair CLR 27.2 24.1 83% 31 76.4 0.0
31 07:55 S 7 16.09 Fair CLR 26.2 23.8 87% 28 76.38 0.0
31 07:35 Calm 16.09 Fair CLR 25 24 94% 26 76.35 0.0
31 07:15 Calm 14.48 Fair CLR 23.2 23.2 100% 76.33 0.0
31 06:35 Calm 16.09 Fair CLR 22 22 100% 76.33 0.0
31 06:15 Calm 16.09 Fair CLR 22 22 100% 76.3 0.0
31 05:55 SE 6 16.09 Fair CLR 21.9 21.9 100% 76.28 0.0
31 05:35 SE 6 16.09 Fair CLR 21.9 21.9 100% 76.28 0.0
31 05:15 SE 6 11.27 Fair CLR 22.7 22.6 99% 76.3 0.0
31 04:55 S 6 16.09 Fair CLR 24.9 23.1 90% 25 76.28 0.0
31 04:35 S 6 16.09 Fair CLR 25.2 23.1 88% 26 76.25 0.0
31 04:15 S 7 16.09 Fair CLR 25.6 23.3 87% 27 76.25 0.0
31 03:55 S 6 16.09 Fair CLR 25.1 23.5 91% 26 76.23 0.0
31 03:35 S 6 16.09 Fair CLR 25 23.6 92% 26 76.23 0.0
31 03:15 S 6 16.09 Fair CLR 24.9 23.6 93% 25 76.23 0.0
31 02:55 S 6 16.09 Fair CLR 25.3 23.6 90% 26 76.2 0.0
31 02:35 Vrbl 6 16.09 Fair CLR 25.2 23.6 91% 26 76.2 0.0
31 02:15 S 7 16.09 Fair CLR 25 23.6 92% 26 76.23 0.0
31 01:55 S 6 16.09 NULL NULL 24.6 23.4 93% 25 76.23 0.0
31 01:35 Calm 16.09 NULL NULL 23.7 23 96% 76.23 0.0
31 01:15 S 6 16.09 Fair CLR 24.6 23.1 91% 25 76.25 0.0
31 00:55 SE 6 16.09 Fair CLR 24.7 22.9 31.2 23.3 90% 25 76.25 0.0
31 00:35 SE 7 16.09 Fair CLR 25 22.6 87% 26 76.23 0.0
31 00:15 SE 6 16.09 Fair CLR 23.3 22.1 93% 76.23 0.0
30 23:55 Calm 16.09 Fair CLR 23.8 22 90% 76.23 0.0
30 23:35 Calm 16.09 Fair CLR 23.9 22 89% 23 76.23 0.0
30 23:15 SE 6 16.09 Fair CLR 23.6 21.9 90% 76.23 0.0
30 22:55 Calm 16.09 Fair CLR 23.9 21.4 86% 24 76.25 0.0
30 22:35 Calm 16.09 Fair CLR 23.5 21.5 89% 76.25 0.0
30 22:15 SE 7 16.09 Fair CLR 23.3 22 92% 76.23 0.0
30 21:55 Calm 16.09 Fair CLR 24 21.8 88% 24 76.23 0.0
30 21:35 Calm 16.09 Fair CLR 23.8 22.4 92% 76.23 0.0
30 21:15 Calm 16.09 Fair CLR 24.6 22 86% 25 76.23 0.0
30 20:55 S 6 16.09 Fair CLR 24.5 22 86% 25 76.2 0.0
30 20:35 SE 6 16.09 Fair CLR 24.5 21.9 86% 25 76.2 0.0
30 20:15 SE 7 16.09 Fair CLR 25.2 21.6 81% 26 76.17 0.0
30 19:55 Calm 3.22 Light Rain CLR 26 21.5 76% 28 76.17 0.0
30 19:35 Calm 12.87 Fair CLR 27.1 21.2 70% 29 76.17 0.0
30 19:15 S 6 16.09 Fair CLR 29.9 19 52% 31 76.17 0.0
30 18:55 S 7 14.48 Fair CLR 31.7 17.8 34.9 31.7 43% 32 76.17 0.0
30 18:35 S 7 16.09 Fair CLR 32.3 17.8 42% 33 76.17 0.0
30 18:15 S 11 16.09 Fair CLR 32.9 17.9 41% 34 76.2 0.0
30 17:55 S 7 16.09 Fair CLR 33.3 17.4 39% 34 76.2 0.0
30 17:35 Vrbl 9 16.09 Fair CLR 33.4 17.3 38% 34 76.2 0.0
30 17:15 S 15 16.09 Fair CLR 33.7 17 37% 34 76.2 0.0
30 16:55 S 13 16.09 NULL NULL 34 17 36% 35 76.2 0.0
30 16:35 Vrbl 11 16.09 NULL NULL 34.5 16.1 33% 35 76.2 0.0
30 16:15 S 15 16.09 Fair CLR 34.6 15.5 32% 34 76.23 0.0
30 15:55 S 15 16.09 Fair CLR 34.4 15.1 31% 34 76.23 0.0
30 15:35 S 13 16.09 Fair CLR 34.5 15.4 32% 34 76.25 0.0
30 15:15 S 15 16.09 Fair CLR 34.2 15.4 32% 34 76.28 0.0
30 14:55 S 17 G 30 16.09 Fair CLR 34.1 15.4 33% 34 76.28 0.0
30 14:35 SW 13 16.09 Fair CLR 34.3 16.4 34% 35 76.28 0.0
30 14:15 S 15 16.09 Fair CLR 34.1 16.9 36% 35 76.3 0.0
Date Time (cdt) Wind (kph) Vis. (km) Weather Sky Cond. Air Dwpt Max. Min. Relative Humidity Wind Chill (°C) Heat Index (°C) altimeter (cm) sea level (mb) 1 hr 3 hr 6 hr
6 hour
Temperature (ºC) Pressure Precipitation (cm)